FW2664 Weather Reports


Display with metric or nautical units.
time (UTC)temp
F
wind
direction
speed
MPH
gust
MPH
rain 1hr
in
rain 24hr
in
rain mn
in
humidity
%
barometer
mb
20260510200820 87 284 2.0 2.0 0.00 0.00 0.00 33 1014.2
20260510200318 86 25 2.0 2.0 0.00 0.00 0.00 35 1014.3
20260510195813 86 272 3.0 4.0 0.00 0.00 0.00 35 1014.4
20260510195310 86 278 0.0 4.0 0.00 0.00 0.00 35 1014.3
20260510194810 85 96 2.0 4.0 0.00 0.00 0.00 34 1014.2
20260510194307 86 206 3.0 5.0 0.00 0.00 0.00 34 1014.3
20260510193803 86 303 1.0 2.0 0.00 0.00 0.00 39 1014.2
20260510193258 85 150 0.0 2.0 0.00 0.00 0.00 34 1014.3
20260510192754 85 23 2.0 4.0 0.00 0.00 0.00 33 1014.4
20260510192249 85 188 0.0 2.0 0.00 0.00 0.00 36 1014.2
20260510191746 85 260 2.0 5.0 0.00 0.00 0.00 38 1014.2
20260510191242 85 204 3.0 6.0 0.00 0.00 0.00 35 1014.4
20260510190740 86 188 1.0 4.0 0.00 0.00 0.00 34 1014.4
20260510190237 85 354 0.0 3.0 0.00 0.00 0.00 38 1014.4
20260510185733 85 279 0.0 5.0 0.00 0.00 0.00 36 1014.4
20260510185231 85 154 2.0 3.0 0.00 0.00 0.00 38 1014.5
20260510184727 85 296 0.0 4.0 0.00 0.00 0.00 35 1014.5
20260510184225 84 20 1.0 4.0 0.00 0.00 0.00 37 1014.6
20260510183720 84 177 2.0 5.0 0.00 0.00 0.00 34 1014.5
20260510183214 84 214 3.0 5.0 0.00 0.00 0.00 35 1014.7
20260510182711 84 231 1.0 6.0 0.00 0.00 0.00 35 1014.8
20260510182207 84 324 2.0 3.0 0.00 0.00 0.00 36 1014.8
20260510181704 84 332 4.0 4.0 0.00 0.00 0.00 35 1014.6
20260510181201 84 348 0.0 3.0 0.00 0.00 0.00 39 1014.9
20260510180657 84 250 2.0 3.0 0.00 0.00 0.00 36 1014.8
20260510180155 84 199 2.0 3.0 0.00 0.00 0.00 32 1014.9
20260510175650 84 264 4.0 4.0 0.00 0.00 0.00 34 1014.7
20260510175146 84 296 0.0 4.0 0.00 0.00 0.00 36 1015.1
20260510174644 84 326 3.0 4.0 0.00 0.00 0.00 33 1015.0
20260510174141 84 272 2.0 4.0 0.00 0.00 0.00 34 1015.3
20260510173637 84 225 0.0 2.0 0.00 0.00 0.00 37 1015.2
20260510173133 83 168 0.0 3.0 0.00 0.00 0.00 37 1015.2
20260510172629 83 226 1.0 4.0 0.00 0.00 0.00 33 1015.3
20260510172125 83 273 2.0 5.0 0.00 0.00 0.00 34 1015.2
20260510171622 82 223 3.0 3.0 0.00 0.00 0.00 38 1015.3
20260510171120 82 294 2.0 5.0 0.00 0.00 0.00 37 1015.2
20260510170616 83 307 2.0 3.0 0.00 0.00 0.00 40 1015.3
20260510170112 82 8 2.0 4.0 0.00 0.00 0.00 41 1015.4
20260510165608 82 279 3.0 5.0 0.00 0.00 0.00 41 1015.2
20260510165104 82 9 0.0 2.0 0.00 0.00 0.00 44 1015.2
20260510164602 82 125 3.0 4.0 0.00 0.00 0.00 42 1015.4
20260510164058 81 307 0.0 3.0 0.00 0.00 0.00 45 1015.4
20260510163553 81 116 4.0 6.0 0.00 0.00 0.00 48 1015.3
20260510163050 81 134 3.0 5.0 0.00 0.00 0.00 47 1015.3
20260510162545 81 98 1.0 2.0 0.00 0.00 0.00 51 1015.2
20260510162042 81 108 2.0 3.0 0.00 0.00 0.00 49 1015.3
20260510161538 80 84 0.0 2.0 0.00 0.00 0.00 51 1015.3
20260510161035 80 164 1.0 6.0 0.00 0.00 0.00 55 1015.4
20260510160532 80 12 2.0 3.0 0.00 0.00 0.00 54 1015.3
20260510160031 80 208 1.0 2.0 0.00 0.00 0.00 51 1015.3
20260510155528 80 94 2.0 3.0 0.00 0.00 0.00 54 1015.4
20260510155024 80 221 0.0 2.0 0.00 0.00 0.00 53 1015.2
20260510154520 80 146 0.0 3.0 0.00 0.00 0.00 56 1015.3
20260510154020 79 197 2.0 2.0 0.00 0.00 0.00 55 1015.3
20260510153515 80 207 1.0 2.0 0.00 0.00 0.00 58 1015.2
20260510153013 79 116 0.0 3.0 0.00 0.00 0.00 60 1015.4
20260510152510 78 119 1.0 4.0 0.00 0.00 0.00 59 1015.4
20260510152006 77 7 1.0 2.0 0.00 0.00 0.00 62 1015.4
20260510151503 76 178 0.0 2.0 0.00 0.00 0.00 61 1015.2
20260510151000 76 95 2.0 6.0 0.00 0.00 0.00 63 1015.2
20260510150455 76 25 2.0 3.0 0.00 0.00 0.00 65 1015.3
20260510145952 76 188 1.0 3.0 0.00 0.00 0.00 65 1015.4
20260510145448 76 110 2.0 4.0 0.00 0.00 0.00 64 1015.3
20260510144944 75 269 0.0 3.0 0.00 0.00 0.00 69 1015.3
20260510144441 76 215 0.0 2.0 0.00 0.00 0.00 69 1015.2
20260510143937 75 117 4.0 4.0 0.00 0.00 0.00 66 1015.3
20260510143433 75 131 4.0 4.0 0.00 0.00 0.00 68 1015.0
20260510142930 74 99 2.0 6.0 0.00 0.00 0.00 67 1015.3
20260510142427 74 113 2.0 3.0 0.00 0.00 0.00 68 1015.3
20260510141923 74 99 2.0 5.0 0.00 0.00 0.00 69 1015.3
20260510141420 73 80 0.0 2.0 0.00 0.00 0.00 71 1015.3
20260510140918 73 171 0.0 3.0 0.00 0.00 0.00 70 1015.1
20260510140414 73 322 0.0 3.0 0.00 0.00 0.00 70 1015.3
20260510135913 73 68 0.0 2.0 0.00 0.00 0.00 71 1015.4
20260510135409 73 118 2.0 2.0 0.00 0.00 0.00 71 1015.3
20260510134907 73 110 2.0 2.0 0.00 0.00 0.00 71 1015.3
20260510134403 71 98 1.0 2.0 0.00 0.00 0.00 73 1015.1
20260510133859 71 129 1.0 2.0 0.00 0.00 0.00 72 1015.1
20260510133356 71 139 1.0 1.0 0.00 0.00 0.00 73 1015.3
20260510132851 70 122 0.0 2.0 0.00 0.00 0.00 74 1015.2
20260510132349 70 106 2.0 4.0 0.00 0.00 0.00 73 1015.2
20260510131846 70 209 2.0 3.0 0.00 0.00 0.00 72 1015.2
20260510131343 70 92 1.0 2.0 0.00 0.00 0.00 72 1015.2
20260510130840 69 121 2.0 3.0 0.00 0.00 0.00 73 1015.0
20260510130337 69 35 0.0 2.0 0.00 0.00 0.00 74 1015.0
20260510125833 68 79 1.0 2.0 0.00 0.00 0.00 75 1015.0
20260510125329 67 88 1.0 3.0 0.00 0.00 0.00 75 1015.3
20260510124827 66 89 0.0 2.0 0.00 0.00 0.00 76 1015.2
20260510124324 67 22 0.0 1.0 0.00 0.00 0.00 77 1015.2
20260510123819 65 106 2.0 2.0 0.00 0.00 0.00 80 1015.0
20260510123315 64 37 0.0 2.0 0.00 0.00 0.00 82 1015.2
20260510122811 63 44 0.0 1.0 0.00 0.00 0.00 83 1015.1
20260510122307 63 110 0.0 1.0 0.00 0.00 0.00 83 1014.9
20260510121804 62 67 0.0 2.0 0.00 0.00 0.00 85 1015.0
20260510121302 62 36 0.0 2.0 0.00 0.00 0.00 84 1014.8
20260510120759 62 56 2.0 2.0 0.00 0.00 0.00 85 1014.7
20260510120255 61 89 2.0 2.0 0.00 0.00 0.00 88 1014.5
20260510115751 60 95 2.0 2.0 0.00 0.00 0.00 92 1014.5
20260510115249 60 92 2.0 2.0 0.00 0.00 0.00 95 1014.4
20260510114744 59 87 1.0 2.0 0.00 0.00 0.00 97 1014.4
20260510114242 57 76 2.0 2.0 0.00 0.00 0.00 97 1014.4
20260510113737 57 58 2.0 2.0 0.00 0.00 0.00 98 1014.2
20260510113234 57 55 2.0 2.0 0.00 0.00 0.00 98 1014.3
20260510112730 55 82 2.0 2.0 0.00 0.00 0.00 98 1014.2
20260510112227 53 87 2.0 2.0 0.00 0.00 0.00 98 1014.3
20260510111723 53 76 2.0 2.0 0.00 0.00 0.00 98 1014.0
20260510111220 53 61 2.0 2.0 0.00 0.00 0.00 98 1013.9
20260510110720 53 74 2.0 2.0 0.00 0.00 0.00 98 1013.5
20260510110218 52 86 2.0 2.0 0.00 0.00 0.00 98 1013.7
20260510105717 52 68 2.0 2.0 0.00 0.00 0.00 98 1013.7
20260510105218 52 83 2.0 2.0 0.00 0.00 0.00 98 1013.6
20260510104714 52 76 2.0 2.0 0.00 0.00 0.00 98 1013.5
20260510104212 52 82 2.0 2.0 0.00 0.00 0.00 98 1013.4
20260510103708 52 73 2.0 3.0 0.00 0.00 0.00 97 1013.4
20260510103205 52 68 2.0 2.0 0.00 0.00 0.00 97 1013.3
20260510102700 52 82 2.0 3.0 0.00 0.00 0.00 97 1013.4
20260510102156 52 68 2.0 2.0 0.00 0.00 0.00 97 1013.1
20260510101654 52 82 2.0 2.0 0.00 0.00 0.00 97 1013.1
20260510101152 52 85 2.0 2.0 0.00 0.00 0.00 97 1013.3
20260510100647 52 70 2.0 2.0 0.00 0.00 0.00 97 1013.1
20260510100145 52 86 2.0 3.0 0.00 0.00 0.00 97 1013.3
20260510095646 52 58 2.0 3.0 0.00 0.00 0.00 97 1013.2
20260510095141 52 67 2.0 3.0 0.00 0.00 0.00 97 1013.1
20260510094640 52 67 3.0 3.0 0.00 0.00 0.00 97 1013.0
20260510094136 52 75 2.0 3.0 0.00 0.00 0.00 97 1013.1
20260510093632 53 63 2.0 3.0 0.00 0.00 0.00 97 1013.0
20260510093129 52 69 2.0 3.0 0.00 0.00 0.00 97 1012.8
20260510092626 52 68 2.0 2.0 0.00 0.00 0.00 97 1012.7
20260510092121 53 78 2.0 2.0 0.00 0.00 0.00 97 1012.7
20260510091617 53 83 2.0 2.0 0.00 0.00 0.00 97 1012.7
20260510091113 53 81 2.0 3.0 0.00 0.00 0.00 97 1012.8
20260510090611 53 77 2.0 3.0 0.00 0.00 0.00 97 1012.9
20260510090106 53 72 2.0 3.0 0.00 0.00 0.00 97 1012.8
20260510085602 53 78 3.0 3.0 0.00 0.00 0.00 97 1013.1
20260510085057 53 80 2.0 2.0 0.00 0.00 0.00 97 1012.8
20260510084554 53 73 2.0 2.0 0.00 0.00 0.00 97 1012.8
20260510084051 53 66 2.0 2.0 0.00 0.00 0.00 97 1012.8
20260510083547 53 44 0.0 2.0 0.00 0.00 0.00 97 1012.9
20260510083044 53 68 0.0 2.0 0.00 0.00 0.00 97 1012.9
20260510082541 53 85 2.0 2.0 0.00 0.00 0.00 97 1012.6
20260510082036 53 86 2.0 2.0 0.00 0.00 0.00 97 1012.6
20260510081531 53 83 2.0 3.0 0.00 0.00 0.00 97 1012.7
20260510081027 54 72 2.0 2.0 0.00 0.00 0.00 97 1012.3
20260510080526 53 59 2.0 2.0 0.00 0.00 0.00 96 1012.4
20260510080023 54 81 2.0 2.0 0.00 0.00 0.00 96 1012.4
20260510075521 54 86 2.0 2.0 0.00 0.00 0.00 96 1012.2
20260510075017 54 74 2.0 2.0 0.00 0.00 0.00 96 1011.9
20260510074515 54 88 2.0 2.0 0.00 0.00 0.00 96 1011.8
20260510074010 54 72 2.0 2.0 0.00 0.00 0.00 96 1011.9
20260510073507 54 60 1.0 2.0 0.00 0.00 0.00 96 1011.9
20260510073004 54 76 2.0 2.0 0.00 0.00 0.00 96 1011.8
20260510072500 54 75 2.0 2.0 0.00 0.00 0.00 96 1011.8
20260510071955 54 64 2.0 3.0 0.00 0.00 0.00 96 1011.9
20260510071452 54 76 2.0 3.0 0.00 0.00 0.00 96 1011.8
20260510070950 55 60 2.0 2.0 0.00 0.00 0.00 96 1011.9
20260510070447 55 73 2.0 3.0 0.00 0.00 0.00 96 1011.8
20260510065943 54 57 2.0 2.0 0.00 0.00 0.00 95 1011.8
20260510065440 54 80 2.0 2.0 0.00 0.00 0.00 95 1011.7
20260510064936 54 73 1.0 2.0 0.00 0.00 0.00 95 1011.9
20260510064434 55 78 2.0 2.0 0.00 0.00 0.00 95 1011.9
20260510063930 55 81 2.0 2.0 0.00 0.00 0.00 95 1011.9
20260510063426 55 80 2.0 2.0 0.00 0.00 0.00 95 1011.8
20260510062925 55 84 2.0 2.0 0.00 0.00 0.00 95 1011.8
20260510062425 55 79 2.0 2.0 0.00 0.00 0.00 95 1011.9
20260510061920 55 83 2.0 2.0 0.00 0.00 0.00 95 1011.7
20260510061417 56 70 2.0 2.0 0.00 0.00 0.00 95 1011.7
20260510060913 56 87 2.0 3.0 0.00 0.00 0.00 95 1012.0
20260510060410 56 84 2.0 2.0 0.00 0.00 0.00 95 1012.0
20260510055906 56 51 2.0 2.0 0.00 0.00 0.00 94 1011.8
20260510055402 56 82 2.0 2.0 0.00 0.00 0.00 94 1011.8
20260510054900 56 69 3.0 3.0 0.00 0.00 0.00 94 1011.9
20260510054356 56 63 2.0 2.0 0.00 0.00 0.00 94 1011.9
20260510053851 56 89 2.0 2.0 0.00 0.00 0.00 94 1011.9
20260510053347 56 87 2.0 2.0 0.00 0.00 0.00 94 1011.9
20260510052843 57 71 2.0 3.0 0.00 0.00 0.00 94 1012.0
20260510052339 57 70 2.0 2.0 0.00 0.00 0.00 93 1011.9
20260510051835 57 75 2.0 2.0 0.00 0.00 0.00 93 1011.9
20260510051332 57 84 2.0 2.0 0.00 0.00 0.00 92 1011.8
20260510050830 57 86 2.0 2.0 0.00 0.00 0.00 92 1011.8
20260510050326 57 76 2.0 2.0 0.00 0.00 0.00 92 1011.8
20260510045823 57 65 2.0 2.0 0.00 0.00 0.00 92 1012.1
20260510045319 57 69 2.0 3.0 0.00 0.00 0.00 92 1011.8
20260510044817 57 71 2.0 2.0 0.00 0.00 0.00 91 1011.9
20260510044314 57 89 2.0 2.0 0.00 0.00 0.00 91 1011.8
20260510043810 57 85 2.0 2.0 0.00 0.00 0.00 90 1011.8
20260510043306 57 85 2.0 2.0 0.00 0.00 0.00 89 1011.6
20260510042804 57 83 2.0 2.0 0.00 0.00 0.00 88 1011.7
20260510042259 57 81 2.0 2.0 0.00 0.00 0.00 88 1011.6
20260510041755 58 82 2.0 2.0 0.00 0.00 0.00 87 1011.7
20260510041254 58 89 2.0 2.0 0.00 0.00 0.00 87 1011.8
20260510040751 58 81 2.0 2.0 0.00 0.00 0.00 86 1011.7
20260510040248 58 73 2.0 2.0 0.00 0.00 0.00 86 1011.7
20260510035743 58 88 2.0 2.0 0.00 0.00 0.00 85 1011.9
20260510035239 58 83 2.0 2.0 0.00 0.00 0.00 84 1011.7
20260510034735 59 87 2.0 2.0 0.00 0.00 0.00 83 1011.8
20260510034233 59 69 2.0 3.0 0.00 0.00 0.00 83 1011.9
20260510033729 59 81 2.0 3.0 0.00 0.00 0.00 83 1011.7
20260510033227 59 80 1.0 2.0 0.00 0.00 0.00 82 1011.7
20260510032723 59 80 2.0 2.0 0.00 0.00 0.00 81 1011.6
20260510032219 59 94 2.0 2.0 0.00 0.00 0.00 81 1011.9
20260510031713 59 82 2.0 2.0 0.00 0.00 0.00 80 1011.5
20260510031210 59 72 2.0 2.0 0.00 0.00 0.00 79 1011.6
20260510030709 60 75 2.0 2.0 0.00 0.00 0.00 78 1011.6
20260510030208 60 66 2.0 2.0 0.00 0.00 0.00 77 1011.5
20260510025705 60 75 2.0 2.0 0.00 0.00 0.00 76 1011.3
20260510025202 60 79 2.0 3.0 0.00 0.00 0.00 76 1011.1
20260510024659 60 76 2.0 3.0 0.00 0.00 0.00 77 1011.2
20260510024155 60 87 2.0 2.0 0.00 0.00 0.00 76 1011.1
20260510023651 61 70 2.0 2.0 0.00 0.00 0.00 75 1011.1
20260510023148 61 79 2.0 2.0 0.00 0.00 0.00 74 1011.1
20260510022643 61 76 2.0 2.0 0.00 0.00 0.00 73 1011.0
20260510022138 62 71 2.0 2.0 0.00 0.00 0.00 73 1010.9
20260510021634 62 80 2.0 2.0 0.00 0.00 0.00 72 1010.7
20260510021132 63 75 2.0 2.0 0.00 0.00 0.00 71 1010.8
20260510020632 63 73 2.0 3.0 0.00 0.00 0.00 71 1010.6
20260510020127 63 71 2.0 2.0 0.00 0.00 0.00 70 1010.8
20260510015624 63 67 2.0 3.0 0.00 0.00 0.00 69 1010.7
20260510015120 64 80 2.0 2.0 0.00 0.00 0.00 68 1010.6
20260510014615 64 79 2.0 2.0 0.00 0.00 0.00 68 1010.5
20260510014114 64 72 2.0 2.0 0.00 0.00 0.00 67 1010.3
20260510013608 65 71 2.0 2.0 0.00 0.00 0.00 65 1010.7
20260510013104 65 76 2.0 2.0 0.00 0.00 0.00 65 1010.2
20260510012603 66 77 2.0 2.0 0.00 0.00 0.00 64 1010.0
20260510012100 66 79 2.0 2.0 0.00 0.00 0.00 63 1010.1
20260510011559 66 84 1.0 2.0 0.00 0.00 0.00 62 1010.2
20260510011055 67 79 2.0 2.0 0.00 0.00 0.00 61 1010.0
20260510010552 68 79 2.0 2.0 0.00 0.00 0.00 60 1010.0
20260510010049 68 65 2.0 2.0 0.00 0.00 0.00 59 1010.0
20260510005550 69 87 2.0 2.0 0.00 0.00 0.00 58 1009.9
20260510005048 69 82 1.0 2.0 0.00 0.00 0.00 56 1009.9
20260510004545 70 83 2.0 2.0 0.00 0.00 0.00 55 1009.9
20260510004043 71 76 2.0 2.0 0.00 0.00 0.00 53 1009.8
20260510003540 72 71 2.0 2.0 0.00 0.00 0.00 52 1009.8
20260510003035 73 83 1.0 2.0 0.00 0.00 0.00 48 1009.7
20260510002530 74 95 2.0 2.0 0.00 0.00 0.00 47 1009.7
20260510002028 76 91 2.0 2.0 0.00 0.00 0.00 45 1009.6
20260510001525 76 93 1.0 2.0 0.00 0.00 0.00 44 1009.5
20260510001023 76 91 0.0 1.0 0.00 0.00 0.00 48 1009.6
20260510000518 76 92 1.0 2.0 0.00 0.00 0.00 45 1009.7
20260510000015 76 89 0.0 1.0 0.00 0.00 0.00 42 1009.4
20260509235512 77 28 0.0 1.0 0.00 0.00 0.00 40 1009.5
20260509235009 77 37 0.0 1.0 0.00 0.00 0.00 40 1009.4
20260509234505 78 269 0.0 1.0 0.00 0.00 0.00 39 1009.4
20260509234003 79 248 0.0 4.0 0.00 0.00 0.00 38 1009.4
20260509233500 81 235 0.0 2.0 0.00 0.00 0.00 37 1009.4
20260509232956 81 218 0.0 0.0 0.00 0.00 0.00 38 1009.4
20260509232454 81 272 0.0 1.0 0.00 0.00 0.00 38 1009.4
20260509231950 81 180 0.0 1.0 0.00 0.00 0.00 37 1009.4
20260509231447 82 267 2.0 2.0 0.00 0.00 0.00 36 1009.5
20260509230945 82 157 1.0 3.0 0.00 0.00 0.00 35 1009.4
20260509230441 82 121 2.0 2.0 0.00 0.00 0.00 36 1009.3
20260509225937 81 215 1.0 4.0 0.00 0.00 0.00 36 1009.3
20260509225434 81 304 1.0 2.0 0.00 0.00 0.00 36 1009.1
20260509224930 80 336 0.0 1.0 0.00 0.00 0.00 39 1009.2
20260509224425 80 212 2.0 2.0 0.00 0.00 0.00 37 1009.2
20260509223923 80 336 2.0 3.0 0.00 0.00 0.00 36 1009.0
20260509223419 80 358 2.0 3.0 0.00 0.00 0.00 35 1009.1
20260509222917 82 23 2.0 2.0 0.00 0.00 0.00 35 1009.0
20260509222412 82 274 1.0 2.0 0.00 0.00 0.00 36 1009.3
20260509221908 82 283 1.0 2.0 0.00 0.00 0.00 36 1009.1
20260509221405 82 282 3.0 3.0 0.00 0.00 0.00 37 1009.0
20260509220900 82 280 2.0 3.0 0.00 0.00 0.00 34 1009.1
20260509220356 82 142 0.0 3.0 0.00 0.00 0.00 36 1009.1
20260509215852 82 150 1.0 2.0 0.00 0.00 0.00 34 1009.0
20260509215349 82 173 0.0 3.0 0.00 0.00 0.00 36 1008.9
20260509214846 83 331 1.0 4.0 0.00 0.00 0.00 38 1009.1
20260509214343 83 308 1.0 2.0 0.00 0.00 0.00 35 1008.9
20260509213840 82 183 0.0 2.0 0.00 0.00 0.00 36 1008.8
20260509213335 82 129 0.0 3.0 0.00 0.00 0.00 36 1008.9
20260509212833 82 202 2.0 3.0 0.00 0.00 0.00 34 1008.7
20260509212331 82 113 2.0 4.0 0.00 0.00 0.00 38 1008.8
20260509211826 82 263 3.0 3.0 0.00 0.00 0.00 41 1008.8
20260509211322 82 74 2.0 4.0 0.00 0.00 0.00 37 1008.8
20260509210819 81 13 0.0 3.0 0.00 0.00 0.00 39 1008.8
20260509210317 82 164 0.0 4.0 0.00 0.00 0.00 39 1008.7
20260509205817 82 221 2.0 4.0 0.00 0.00 0.00 38 1008.9
20260509205312 82 77 0.0 3.0 0.00 0.00 0.00 39 1008.9
20260509204808 81 31 2.0 2.0 0.00 0.00 0.00 38 1008.9
20260509204304 80 18 0.0 4.0 0.00 0.00 0.00 41 1008.8
20260509203800 81 207 4.0 4.0 0.00 0.00 0.00 38 1008.8
20260509203258 81 225 2.0 3.0 0.00 0.00 0.00 40 1008.9
20260509202754 81 94 0.0 4.0 0.00 0.00 0.00 41 1008.7
20260509202250 80 171 2.0 4.0 0.00 0.00 0.00 39 1008.9
20260509201750 80 185 1.0 2.0 0.00 0.00 0.00 41 1008.9